Flag for Austria Weather past 2 weeks in Waidhofen an der Ybbs, Lower Austria, Austria

Now
58 °F

Cool.


Feels Like: 58 °F
Forecast: 36 / 55 °F
Wind: 5 mph from West

Location: Amstetten

Current Time: Sep 22, 2014 at 12:34:24 PM

Latest Report: Sep 22, 2014 at 12:00 PM


Visibility: N/A

Pressure: 29.97 "Hg

Humidity: 65%

Dew point: 47 °F

Location of Waidhofen an der YbbsLocation

Historic Weather in Waidhofen an der Ybbs — Graph

°F

Waidhofen an der Ybbs temperature yesterday

Maximum temperature yesterday: 69 °F (at 12:00 PM)
Minimum temperature yesterday: 59 °F (at 9:00 PM)
Average temperature yesterday: 63 °F

Past Weeks' High & Low Weather Summary

 TemperatureHumidityPressure
High79 °F (Sep 8, 4:00 PM)100% (Sep 8, 8:00 AM)30.12 "Hg (Sep 8, 8:00 AM)
Low52 °F (Sep 19, 5:00 AM)40% (Sep 17, 5:00 PM)29.86 "Hg (Sep 22, 1:00 AM)
Average61 °F85%29.99 "Hg
* Reported Sep 7 11:00 AM — Sep 22 11:00 AM, Waidhofen an der Ybbs, Weather by CustomWeather, © 2014

Note: Actual official high and low records may vary slightly from our data, if they occured in-between our weather recording intervals... More about our weather records

Advertising

Waidhofen an der Ybbs weather history for previous 24 hours

 ConditionsComfort  
Time TempWeatherWind HumidityBarometerVisibility
11:00 AM
Sep 22
57 °FCool.5 mph74%29.99 "HgN/A
10:00 AM56 °FCool.5 mph80%29.98 "HgN/A
9:00 AM55 °FCool.5 mph84%29.98 "HgN/A
8:00 AM54 °FOvercast.3 mph90%29.97 "HgN/A
7:00 AM55 °FCool.3 mph91%29.96 "HgN/A
6:00 AM56 °FCool.3 mph92%29.94 "HgN/A
5:00 AM57 °FCool.3 mph95%29.92 "HgN/A
4:00 AM57 °FCool.3 mph95%29.90 "HgN/A
3:00 AM59 °FSprinkles. Overcast.3 mph93%29.88 "HgN/A
2:00 AM60 °FCool.5 mph89%29.86 "HgN/A
1:00 AM60 °FCool.5 mph89%29.86 "HgN/A
12:00 AM60 °FCool.5 mph92%29.88 "HgN/A
11:00 PM
Sep 21
59 °FCool.1 mph92%29.88 "HgN/A
10:00 PM59 °FCool.2 mph92%29.89 "HgN/A
9:00 PM59 °FCool.1 mph97%29.90 "HgN/A
8:00 PM60 °FCool.1 mph94%29.90 "HgN/A
7:00 PM62 °FSprinkles. Cloudy.5 mph92%29.88 "HgN/A
6:00 PM63 °FMild.1 mph95%29.89 "HgN/A
5:00 PM68 °FMild.2 mph77%29.88 "HgN/A
4:00 PM66 °FMild.3 mph84%29.90 "HgN/A
3:00 PM63 °FFog.3 mph90%29.93 "HgN/A
2:00 PM65 °FMild.3 mph85%29.94 "HgN/A
1:00 PM65 °FMild.2 mph84%29.95 "HgN/A
12:00 PM69 °FMild.3 mph72%29.94 "HgN/A
Weather by CustomWeather, © 2014

See weather overviewHow to use our weather pages